DAL2941 MKJS-KMCO

Flight info

Callsign DAL2941
Flight time 1h 51m
Altitude 36000
Route ALTIB UM779 ZEUSS DCT OCTAL RIDES2
Aircraft B738/M-SDE2E3FGHIRWXY/LB1

Departure

Time 2026-04-25 13:52
Airport Sangster International Airport (MKJS)

Arrival

Time 2026-04-25 15:43
Airport Orlando International Airport (KMCO)
Time Latitude Longitude Altitude Speed Heading
2026-04-25 13:37 18.49931 -77.91751 9 ft 0 kts 155°
2026-04-25 13:45 18.49993 -77.91781 10 ft 0 kts 155°
2026-04-25 13:47 18.49993 -77.91780 10 ft 0 kts 155°
2026-04-25 13:47 18.49992 -77.91780 10 ft 0 kts 155°
2026-04-25 13:48 18.49981 -77.91777 10 ft 3 kts 166°
2026-04-25 13:48 18.49966 -77.91790 10 ft 4 kts 269°
2026-04-25 13:48 18.49961 -77.91827 10 ft 8 kts 259°
2026-04-25 13:49 18.49925 -77.91937 10 ft 20 kts 246°
2026-04-25 13:49 18.49867 -77.92068 11 ft 20 kts 245°
2026-04-25 13:49 18.49810 -77.92197 10 ft 19 kts 245°
2026-04-25 13:49 18.49780 -77.92264 12 ft 5 kts 245°
2026-04-25 13:50 18.49760 -77.92309 10 ft 12 kts 245°
2026-04-25 13:50 18.49749 -77.92396 9 ft 12 kts 298°
2026-04-25 13:50 18.49784 -77.92420 9 ft 0 kts 336°
2026-04-25 13:51 18.49784 -77.92421 9 ft 0 kts 336°
2026-04-25 13:51 18.49835 -77.92442 10 ft 15 kts 345°
2026-04-25 13:51 18.49912 -77.92381 11 ft 15 kts 64°
2026-04-25 13:51 18.49955 -77.92285 12 ft 15 kts 64°
2026-04-25 13:52 18.50058 -77.92049 14 ft 74 kts 67°
2026-04-25 13:52 18.50398 -77.91269 12 ft 156 kts 64°
2026-04-25 13:52 18.50913 -77.90151 754 ft 168 kts 64°
2026-04-25 13:52 18.51525 -77.89025 1653 ft 192 kts 57°
2026-04-25 13:53 18.52395 -77.87799 2282 ft 217 kts 50°
2026-04-25 13:53 18.53583 -77.86769 2756 ft 227 kts 19°
2026-04-25 13:53 18.55111 -77.86716 3389 ft 222 kts 338°
2026-04-25 13:53 18.56476 -77.87465 4057 ft 223 kts 327°
2026-04-25 13:54 18.57814 -77.88263 4812 ft 223 kts 329°
2026-04-25 13:54 18.59201 -77.88991 5625 ft 224 kts 333°
2026-04-25 13:54 18.60646 -77.89640 6356 ft 227 kts 336°
2026-04-25 13:54 18.62141 -77.90214 7059 ft 231 kts 339°
2026-04-25 13:55 18.63683 -77.90727 7746 ft 234 kts 341°
2026-04-25 13:55 18.65260 -77.91188 8443 ft 237 kts 342°
2026-04-25 13:55 18.66873 -77.91607 9145 ft 241 kts 344°
2026-04-25 13:55 18.68522 -77.91994 9853 ft 244 kts 345°
2026-04-25 13:56 18.70194 -77.92354 10504 ft 247 kts 346°
2026-04-25 13:56 18.71862 -77.92688 11174 ft 248 kts 346°
2026-04-25 13:56 18.73612 -77.93020 11556 ft 267 kts 347°
2026-04-25 13:56 18.75535 -77.93370 11748 ft 293 kts 348°
2026-04-25 13:57 18.77623 -77.93734 11932 ft 317 kts 348°
2026-04-25 13:57 18.78369 -77.93860 12004 ft 324 kts 348°
2026-04-25 13:57 18.82179 -77.94482 12985 ft 338 kts 349°
2026-04-25 13:57 18.84507 -77.94849 13747 ft 341 kts 349°
2026-04-25 13:58 18.86860 -77.95216 14450 ft 343 kts 349°
2026-04-25 13:58 18.89222 -77.95580 15231 ft 343 kts 349°
2026-04-25 13:58 18.91586 -77.95943 16018 ft 343 kts 349°
2026-04-25 13:58 18.93946 -77.96305 16772 ft 344 kts 349°
2026-04-25 13:59 18.96290 -77.96664 17475 ft 347 kts 348°
2026-04-25 13:59 18.98687 -77.97031 18187 ft 349 kts 348°
2026-04-25 13:59 18.99023 -77.97082 18289 ft 349 kts 348°
2026-04-25 13:59 18.99890 -77.97215 18483 ft 350 kts 348°
2026-04-25 14:00 19.02257 -77.97578 19057 ft 354 kts 348°
2026-04-25 14:00 19.04705 -77.97953 19630 ft 357 kts 348°
2026-04-25 14:00 19.07171 -77.98331 20255 ft 359 kts 347°
2026-04-25 14:00 19.09649 -77.98710 20821 ft 362 kts 347°
2026-04-25 14:01 19.12153 -77.99094 21400 ft 365 kts 347°
2026-04-25 14:01 19.14647 -77.99476 21974 ft 368 kts 347°
2026-04-25 14:01 19.17186 -77.99866 22552 ft 371 kts 347°
2026-04-25 14:01 19.19640 -78.00242 23089 ft 373 kts 346°
2026-04-25 14:02 19.22217 -78.00637 23621 ft 376 kts 346°
2026-04-25 14:02 19.24819 -78.01037 24069 ft 379 kts 346°
2026-04-25 14:02 19.27438 -78.01439 24498 ft 382 kts 346°
2026-04-25 14:02 19.28328 -78.01575 24650 ft 383 kts 346°
2026-04-25 14:03 19.32737 -78.02252 25388 ft 387 kts 346°
2026-04-25 14:03 19.35412 -78.02663 25825 ft 390 kts 346°
2026-04-25 14:03 19.38073 -78.03072 26252 ft 393 kts 345°
2026-04-25 14:03 19.40780 -78.03487 26759 ft 393 kts 345°
2026-04-25 14:04 19.43475 -78.03899 27359 ft 391 kts 345°
2026-04-25 14:04 19.46161 -78.04310 27972 ft 389 kts 345°
2026-04-25 14:04 19.48835 -78.04720 28512 ft 388 kts 344°
2026-04-25 14:04 19.51511 -78.05132 29053 ft 388 kts 344°
2026-04-25 14:05 19.54178 -78.05542 29621 ft 387 kts 344°
2026-04-25 14:05 19.56833 -78.05951 30173 ft 385 kts 343°
2026-04-25 14:05 19.59477 -78.06357 30652 ft 383 kts 343°
2026-04-25 14:05 19.62071 -78.06756 31159 ft 381 kts 343°
2026-04-25 14:06 19.64688 -78.07159 31646 ft 378 kts 343°
2026-04-25 14:06 19.67283 -78.07558 32122 ft 377 kts 343°
2026-04-25 14:06 19.69876 -78.07958 32577 ft 375 kts 343°
2026-04-25 14:06 19.72445 -78.08355 33042 ft 373 kts 343°
2026-04-25 14:07 19.75009 -78.08750 33554 ft 370 kts 343°
2026-04-25 14:07 19.77558 -78.09144 33904 ft 371 kts 342°
2026-04-25 14:07 19.80126 -78.09544 34104 ft 375 kts 343°
2026-04-25 14:07 19.82679 -78.09942 34332 ft 378 kts 343°
2026-04-25 14:08 19.85283 -78.10346 34615 ft 378 kts 343°
2026-04-25 14:08 19.87880 -78.10746 34976 ft 376 kts 343°
2026-04-25 14:08 19.90464 -78.11143 35342 ft 374 kts 342°
2026-04-25 14:08 19.93039 -78.11540 35658 ft 373 kts 342°
2026-04-25 14:09 19.95610 -78.11937 35965 ft 373 kts 342°
2026-04-25 14:09 19.98174 -78.12333 36270 ft 372 kts 342°
2026-04-25 14:09 20.00725 -78.12728 36592 ft 371 kts 342°
2026-04-25 14:10 20.05790 -78.13513 37135 ft 370 kts 342°
2026-04-25 14:10 20.08333 -78.13907 37484 ft 368 kts 342°
2026-04-25 14:10 20.10847 -78.14294 37885 ft 363 kts 341°
2026-04-25 14:10 20.13346 -78.14681 38141 ft 363 kts 341°
2026-04-25 14:11 20.15852 -78.15072 38223 ft 367 kts 341°
2026-04-25 14:11 20.20967 -78.15875 38326 ft 376 kts 342°
2026-04-25 14:12 20.26167 -78.16688 38422 ft 385 kts 342°
2026-04-25 14:12 20.31519 -78.17520 38552 ft 392 kts 342°
2026-04-25 14:12 20.34227 -78.17940 38697 ft 394 kts 342°
2026-04-25 14:13 20.36936 -78.18358 38874 ft 394 kts 342°
2026-04-25 14:13 20.42412 -78.19209 39033 ft 399 kts 342°
2026-04-25 14:13 20.45151 -78.19634 39248 ft 398 kts 342°
2026-04-25 14:14 20.47891 -78.20058 39404 ft 398 kts 342°
2026-04-25 14:14 20.50639 -78.20486 39520 ft 400 kts 342°
2026-04-25 14:14 20.53353 -78.20909 39659 ft 400 kts 342°
2026-04-25 14:14 20.56107 -78.21338 39821 ft 400 kts 342°
2026-04-25 14:15 20.58861 -78.21767 39935 ft 401 kts 342°
2026-04-25 14:15 20.64403 -78.22634 39961 ft 404 kts 342°
2026-04-25 14:16 20.69987 -78.23507 39967 ft 408 kts 342°
2026-04-25 14:16 20.75600 -78.24387 39992 ft 414 kts 342°
2026-04-25 14:17 20.81338 -78.25287 39970 ft 420 kts 342°
2026-04-25 14:17 20.87156 -78.26197 39963 ft 424 kts 342°
2026-04-25 14:18 20.93028 -78.27116 39962 ft 428 kts 342°
2026-04-25 14:18 20.97932 -78.27883 39956 ft 430 kts 342°
2026-04-25 14:19 21.04760 -78.28947 39945 ft 422 kts 342°
2026-04-25 14:19 21.10523 -78.29846 39955 ft 417 kts 342°
2026-04-25 14:20 21.16259 -78.30751 39961 ft 416 kts 342°
2026-04-25 14:20 21.21022 -78.31503 39965 ft 416 kts 342°
2026-04-25 14:21 21.27681 -78.32553 39969 ft 417 kts 342°
2026-04-25 14:21 21.32490 -78.33311 39964 ft 417 kts 342°
2026-04-25 14:22 21.38208 -78.34214 39969 ft 419 kts 342°
2026-04-25 14:22 21.43990 -78.35127 39968 ft 421 kts 341°
2026-04-25 14:23 21.49795 -78.36043 39960 ft 422 kts 342°
2026-04-25 14:23 21.55605 -78.36960 39963 ft 423 kts 342°
2026-04-25 14:24 21.61391 -78.37875 39964 ft 423 kts 342°
2026-04-25 14:24 21.67218 -78.38796 39962 ft 423 kts 342°
2026-04-25 14:25 21.73043 -78.39718 39992 ft 423 kts 341°
2026-04-25 14:25 21.78863 -78.40641 39975 ft 422 kts 341°
2026-04-25 14:26 21.84631 -78.41556 39962 ft 422 kts 341°
2026-04-25 14:26 21.90428 -78.42475 39964 ft 420 kts 341°
2026-04-25 14:27 21.96204 -78.43393 39964 ft 419 kts 341°
2026-04-25 14:27 22.01959 -78.44308 39963 ft 418 kts 341°
2026-04-25 14:28 22.07667 -78.45217 39968 ft 418 kts 341°
2026-04-25 14:28 22.13412 -78.46133 39971 ft 417 kts 341°
2026-04-25 14:29 22.19146 -78.47047 39966 ft 416 kts 341°
2026-04-25 14:29 22.24873 -78.47961 39970 ft 416 kts 341°
2026-04-25 14:30 22.30566 -78.48870 39964 ft 416 kts 341°
2026-04-25 14:30 22.39162 -78.50245 40012 ft 417 kts 341°
2026-04-25 14:31 22.44915 -78.51166 39976 ft 418 kts 341°
2026-04-25 14:31 22.50677 -78.52088 39965 ft 419 kts 341°
2026-04-25 14:32 22.56411 -78.53006 39966 ft 419 kts 341°
2026-04-25 14:32 22.62184 -78.53931 39967 ft 420 kts 341°
2026-04-25 14:33 22.67964 -78.54857 39966 ft 420 kts 341°
2026-04-25 14:33 22.73750 -78.55786 39970 ft 421 kts 341°
2026-04-25 14:34 22.79535 -78.56735 39967 ft 420 kts 340°
2026-04-25 14:34 22.85245 -78.57807 39967 ft 419 kts 340°
2026-04-25 14:35 22.90980 -78.58912 39966 ft 419 kts 340°
2026-04-25 14:35 22.96721 -78.60006 39967 ft 419 kts 340°
2026-04-25 14:36 23.02449 -78.61088 40003 ft 419 kts 340°
2026-04-25 14:36 23.08160 -78.62166 39983 ft 419 kts 340°
2026-04-25 14:37 23.13914 -78.63251 39965 ft 420 kts 340°
2026-04-25 14:37 23.19667 -78.64337 39964 ft 420 kts 340°
2026-04-25 14:38 23.25420 -78.65424 39980 ft 420 kts 340°
2026-04-25 14:38 23.31138 -78.66506 39980 ft 420 kts 340°
2026-04-25 14:39 23.36895 -78.67597 39980 ft 421 kts 341°
2026-04-25 14:39 23.42676 -78.68693 39974 ft 422 kts 341°
2026-04-25 14:40 23.48458 -78.69789 39972 ft 422 kts 341°
2026-04-25 14:40 23.54249 -78.70889 39974 ft 422 kts 341°
2026-04-25 14:41 23.60003 -78.71982 39975 ft 423 kts 341°
2026-04-25 14:41 23.65794 -78.73083 40015 ft 423 kts 341°
2026-04-25 14:42 23.70622 -78.74002 39982 ft 424 kts 341°
2026-04-25 14:42 23.77414 -78.75295 39974 ft 424 kts 341°
2026-04-25 14:43 23.83192 -78.76396 39976 ft 424 kts 341°
2026-04-25 14:43 23.89014 -78.77505 39975 ft 424 kts 341°
2026-04-25 14:44 23.94832 -78.78616 39975 ft 424 kts 341°
2026-04-25 14:44 24.00486 -78.80130 39980 ft 414 kts 330°
2026-04-25 14:45 24.05447 -78.83011 39989 ft 405 kts 322°
2026-04-25 14:45 24.10285 -78.86169 39976 ft 405 kts 322°
2026-04-25 14:46 24.15140 -78.89319 39978 ft 406 kts 322°
2026-04-25 14:46 24.20004 -78.92456 39978 ft 406 kts 322°
2026-04-25 14:47 24.24051 -78.95063 39979 ft 406 kts 322°
2026-04-25 14:47 24.29720 -78.98714 39978 ft 407 kts 322°
2026-04-25 14:48 24.34469 -79.01775 39981 ft 407 kts 322°
2026-04-25 14:48 24.39352 -79.04926 39980 ft 407 kts 322°
2026-04-25 14:49 24.44206 -79.08061 39979 ft 408 kts 323°
2026-04-25 14:49 24.49093 -79.11220 39977 ft 408 kts 323°
2026-04-25 14:50 24.53980 -79.14382 39978 ft 408 kts 323°
2026-04-25 14:50 24.58866 -79.17546 39978 ft 408 kts 323°
2026-04-25 14:51 24.63716 -79.20690 39998 ft 408 kts 323°
2026-04-25 14:51 24.68606 -79.23863 39988 ft 408 kts 323°
2026-04-25 14:52 24.73501 -79.27042 39979 ft 408 kts 323°
2026-04-25 14:52 24.77563 -79.29682 39979 ft 408 kts 323°
2026-04-25 14:53 24.83284 -79.33404 39981 ft 408 kts 323°
2026-04-25 14:53 24.88139 -79.36565 39981 ft 408 kts 323°
2026-04-25 14:54 24.93027 -79.39751 39979 ft 408 kts 323°
2026-04-25 14:54 24.97922 -79.42945 39980 ft 409 kts 323°
2026-04-25 14:55 25.02808 -79.46137 39980 ft 409 kts 323°
2026-04-25 14:55 25.07709 -79.49340 39982 ft 409 kts 323°
2026-04-25 14:56 25.12573 -79.52522 39982 ft 410 kts 323°
2026-04-25 14:56 25.17481 -79.55736 39981 ft 410 kts 323°
2026-04-25 14:57 25.22383 -79.58950 39980 ft 410 kts 323°
2026-04-25 14:57 25.27291 -79.62170 39982 ft 410 kts 323°
2026-04-25 14:58 25.32177 -79.65379 39991 ft 411 kts 323°
2026-04-25 14:58 25.37099 -79.68614 39981 ft 412 kts 323°
2026-04-25 14:59 25.42026 -79.71856 39981 ft 412 kts 323°
2026-04-25 14:59 25.46956 -79.75103 39981 ft 412 kts 323°
2026-04-25 15:00 25.51851 -79.78330 39984 ft 412 kts 323°
2026-04-25 15:00 25.56776 -79.81580 39986 ft 412 kts 323°
2026-04-25 15:01 25.61694 -79.84828 39990 ft 412 kts 323°
2026-04-25 15:01 25.66619 -79.88084 39991 ft 412 kts 323°
2026-04-25 15:02 25.71542 -79.91342 39984 ft 412 kts 323°
2026-04-25 15:02 25.76456 -79.94597 39976 ft 411 kts 323°
2026-04-25 15:03 25.81330 -79.97829 39979 ft 411 kts 323°
2026-04-25 15:03 25.86127 -80.01013 39983 ft 411 kts 323°
2026-04-25 15:04 25.91026 -80.04267 39977 ft 410 kts 323°
2026-04-25 15:04 25.95930 -80.07529 39988 ft 411 kts 323°
2026-04-25 15:05 26.00793 -80.10765 39984 ft 411 kts 323°
2026-04-25 15:06 26.08160 -80.15673 39984 ft 412 kts 323°
2026-04-25 15:06 26.13074 -80.18950 39985 ft 412 kts 324°
2026-04-25 15:07 26.18159 -80.21959 40006 ft 416 kts 330°
2026-04-25 15:07 26.23432 -80.24543 40015 ft 417 kts 331°
2026-04-25 15:08 26.28765 -80.27132 39995 ft 418 kts 331°
2026-04-25 15:08 26.34097 -80.29755 39989 ft 419 kts 331°
2026-04-25 15:09 26.39391 -80.32383 39984 ft 420 kts 331°
2026-04-25 15:09 26.47390 -80.36371 39982 ft 420 kts 331°
2026-04-25 15:10 26.52729 -80.39037 39980 ft 421 kts 331°
2026-04-25 15:11 26.60778 -80.43062 39511 ft 429 kts 332°
2026-04-25 15:11 26.63500 -80.44424 39022 ft 428 kts 332°
2026-04-25 15:11 26.66185 -80.45768 38452 ft 428 kts 332°
2026-04-25 15:12 26.71625 -80.48491 37181 ft 428 kts 332°
2026-04-25 15:12 26.74339 -80.49850 36582 ft 427 kts 333°
2026-04-25 15:12 26.77046 -80.51208 35975 ft 427 kts 333°
2026-04-25 15:12 26.78845 -80.52111 35539 ft 428 kts 333°
2026-04-25 15:13 26.82472 -80.53932 34762 ft 427 kts 333°
2026-04-25 15:13 26.87838 -80.56626 33810 ft 423 kts 334°
2026-04-25 15:13 26.90514 -80.57972 33294 ft 420 kts 335°
2026-04-25 15:14 26.93167 -80.59307 32816 ft 417 kts 335°
2026-04-25 15:14 26.95804 -80.60635 32354 ft 414 kts 335°
2026-04-25 15:14 26.98426 -80.61955 31892 ft 411 kts 335°
2026-04-25 15:14 27.01018 -80.63262 31456 ft 408 kts 335°
2026-04-25 15:15 27.03597 -80.64562 31025 ft 406 kts 335°
2026-04-25 15:15 27.06165 -80.65858 30586 ft 403 kts 335°
2026-04-25 15:15 27.08684 -80.67129 30163 ft 401 kts 335°
2026-04-25 15:15 27.11228 -80.68414 29652 ft 400 kts 335°
2026-04-25 15:16 27.13755 -80.69690 29164 ft 396 kts 335°
2026-04-25 15:16 27.16257 -80.70954 28699 ft 393 kts 335°
2026-04-25 15:16 27.21207 -80.73458 27799 ft 387 kts 335°
2026-04-25 15:17 27.26072 -80.75921 26913 ft 381 kts 335°
2026-04-25 15:17 27.28479 -80.77140 26497 ft 378 kts 335°
2026-04-25 15:17 27.30842 -80.78338 26080 ft 376 kts 335°
2026-04-25 15:18 27.33214 -80.79541 25646 ft 373 kts 335°
2026-04-25 15:18 27.37917 -80.81927 24803 ft 369 kts 334°
2026-04-25 15:18 27.40247 -80.83110 24392 ft 367 kts 334°
2026-04-25 15:19 27.42567 -80.84289 23969 ft 365 kts 334°
2026-04-25 15:19 27.44098 -80.85067 23678 ft 364 kts 334°
2026-04-25 15:19 27.47177 -80.86632 23055 ft 361 kts 334°
2026-04-25 15:19 27.49456 -80.87792 22601 ft 359 kts 334°
2026-04-25 15:20 27.51722 -80.88945 22173 ft 356 kts 334°
2026-04-25 15:20 27.53940 -80.90075 21761 ft 353 kts 334°
2026-04-25 15:20 27.56169 -80.91210 21340 ft 350 kts 334°
2026-04-25 15:20 27.58383 -80.92339 20937 ft 348 kts 334°
2026-04-25 15:21 27.60575 -80.93456 20547 ft 345 kts 334°
2026-04-25 15:21 27.62760 -80.94571 20144 ft 343 kts 334°
2026-04-25 15:21 27.64930 -80.95679 19749 ft 341 kts 334°
2026-04-25 15:21 27.67087 -80.96780 19351 ft 340 kts 333°
2026-04-25 15:22 27.69232 -80.97876 18965 ft 338 kts 333°
2026-04-25 15:22 27.71369 -80.98968 18559 ft 338 kts 333°
2026-04-25 15:22 27.73451 -81.00032 18162 ft 337 kts 333°
2026-04-25 15:22 27.75537 -81.01099 17725 ft 336 kts 333°
2026-04-25 15:23 27.77655 -81.02182 17327 ft 334 kts 333°
2026-04-25 15:23 27.79765 -81.03262 16905 ft 332 kts 333°
2026-04-25 15:23 27.81859 -81.04334 16526 ft 329 kts 334°
2026-04-25 15:23 27.83942 -81.05400 16143 ft 328 kts 334°
2026-04-25 15:24 27.86011 -81.06460 15755 ft 326 kts 334°
2026-04-25 15:24 27.88071 -81.07516 15376 ft 324 kts 334°
2026-04-25 15:24 27.90120 -81.08567 14994 ft 322 kts 334°
2026-04-25 15:24 27.91470 -81.09260 14736 ft 321 kts 334°
2026-04-25 15:25 27.94194 -81.10564 14188 ft 322 kts 336°
2026-04-25 15:25 27.96274 -81.11496 13843 ft 319 kts 337°
2026-04-25 15:25 27.98304 -81.12400 13804 ft 310 kts 337°
2026-04-25 15:25 28.00282 -81.13289 13770 ft 302 kts 337°
2026-04-25 15:26 28.02202 -81.14159 13484 ft 297 kts 336°
2026-04-25 15:26 28.04150 -81.15048 12758 ft 307 kts 336°
2026-04-25 15:26 28.06148 -81.15959 12256 ft 310 kts 337°
2026-04-25 15:26 28.08188 -81.16625 11850 ft 311 kts 351°
2026-04-25 15:27 28.10333 -81.16852 11505 ft 309 kts 353°
2026-04-25 15:27 28.12469 -81.17060 11127 ft 308 kts 353°
2026-04-25 15:27 28.16725 -81.17466 10449 ft 305 kts 353°
2026-04-25 15:28 28.18814 -81.17672 10229 ft 299 kts 353°
2026-04-25 15:28 28.20861 -81.17878 10075 ft 292 kts 353°
2026-04-25 15:28 28.22858 -81.18082 9938 ft 284 kts 353°
2026-04-25 15:28 28.24792 -81.18280 9662 ft 281 kts 353°
2026-04-25 15:29 28.26720 -81.18480 9312 ft 281 kts 353°
2026-04-25 15:29 28.28680 -81.18607 8965 ft 282 kts 357°
2026-04-25 15:29 28.30632 -81.18634 8656 ft 281 kts 358°
2026-04-25 15:29 28.32581 -81.18651 8388 ft 278 kts 358°
2026-04-25 15:30 28.34483 -81.18676 8268 ft 270 kts 357°
2026-04-25 15:30 28.36344 -81.18705 8142 ft 262 kts 358°
2026-04-25 15:30 28.38144 -81.18737 8024 ft 255 kts 358°
2026-04-25 15:30 28.39904 -81.18765 7840 ft 252 kts 357°
2026-04-25 15:31 28.41646 -81.18782 7617 ft 250 kts 358°
2026-04-25 15:31 28.43380 -81.18797 7382 ft 249 kts 358°
2026-04-25 15:31 28.45084 -81.18809 7168 ft 247 kts 358°
2026-04-25 15:31 28.46801 -81.18822 6926 ft 246 kts 358°
2026-04-25 15:32 28.48506 -81.18836 6703 ft 245 kts 359°
2026-04-25 15:32 28.50208 -81.18849 6467 ft 244 kts 359°
2026-04-25 15:32 28.51907 -81.18862 6219 ft 244 kts 359°
2026-04-25 15:33 28.55284 -81.18889 5739 ft 242 kts 359°
2026-04-25 15:33 28.56957 -81.18902 5511 ft 240 kts 359°
2026-04-25 15:33 28.58625 -81.18916 5280 ft 239 kts 358°
2026-04-25 15:33 28.60282 -81.18931 5051 ft 238 kts 358°
2026-04-25 15:34 28.61934 -81.18958 4672 ft 244 kts 358°
2026-04-25 15:34 28.63635 -81.19004 4375 ft 245 kts 358°
2026-04-25 15:34 28.65330 -81.19047 4161 ft 243 kts 358°
2026-04-25 15:34 28.66440 -81.19070 4066 ft 239 kts 358°
2026-04-25 15:35 28.70177 -81.19170 3905 ft 220 kts 358°
2026-04-25 15:35 28.71707 -81.19210 3901 ft 221 kts 357°
2026-04-25 15:35 28.73257 -81.19268 3854 ft 224 kts 358°
2026-04-25 15:36 28.75984 -81.20538 3867 ft 222 kts 303°
2026-04-25 15:36 28.76468 -81.22190 3874 ft 223 kts 271°
2026-04-25 15:36 28.76370 -81.23962 3864 ft 226 kts 264°
2026-04-25 15:37 28.75985 -81.25685 3847 ft 225 kts 239°
2026-04-25 15:37 28.74896 -81.26938 3866 ft 225 kts 213°
2026-04-25 15:37 28.73557 -81.27845 3857 ft 224 kts 205°
2026-04-25 15:37 28.72139 -81.28582 3861 ft 223 kts 205°
2026-04-25 15:38 28.70646 -81.28973 3850 ft 223 kts 172°
2026-04-25 15:38 28.69121 -81.28643 3846 ft 224 kts 172°
2026-04-25 15:38 28.67577 -81.28503 3864 ft 223 kts 178°
2026-04-25 15:38 28.66023 -81.28467 3865 ft 223 kts 179°
2026-04-25 15:39 28.64493 -81.28451 3870 ft 224 kts 180°
2026-04-25 15:39 28.62924 -81.28440 3875 ft 224 kts 179°
2026-04-25 15:39 28.61330 -81.28423 3435 ft 240 kts 179°
2026-04-25 15:39 28.59668 -81.28406 3101 ft 239 kts 179°
2026-04-25 15:40 28.58022 -81.28389 2765 ft 231 kts 180°
2026-04-25 15:40 28.57491 -81.28385 2731 ft 221 kts 180°
2026-04-25 15:40 28.55148 -81.28360 2518 ft 185 kts 179°
2026-04-25 15:40 28.53878 -81.28346 2488 ft 179 kts 180°
2026-04-25 15:41 28.52657 -81.28336 2311 ft 174 kts 179°
2026-04-25 15:41 28.51481 -81.28316 1915 ft 169 kts 179°
2026-04-25 15:41 28.50286 -81.28288 1357 ft 172 kts 179°
2026-04-25 15:41 28.49105 -81.28269 984 ft 166 kts 179°
2026-04-25 15:42 28.48027 -81.28261 876 ft 145 kts 179°
2026-04-25 15:42 28.47028 -81.28286 628 ft 141 kts 182°
2026-04-25 15:42 28.46082 -81.28284 458 ft 130 kts 177°
2026-04-25 15:42 28.45206 -81.28265 293 ft 125 kts 180°
2026-04-25 15:43 28.44336 -81.28251 138 ft 123 kts 179°
2026-04-25 15:43 28.43502 -81.28237 96 ft 109 kts 178°
2026-04-25 15:43 28.42893 -81.28237 96 ft 66 kts 180°
2026-04-25 15:43 28.42583 -81.28235 97 ft 23 kts 182°
2026-04-25 15:44 28.42539 -81.28234 99 ft 3 kts 179°
2026-04-25 15:44 28.42461 -81.28235 100 ft 15 kts 182°
2026-04-25 15:44 28.42359 -81.28254 98 ft 15 kts 200°
2026-04-25 15:44 28.42287 -81.28327 98 ft 14 kts 250°
2026-04-25 15:45 28.42353 -81.28365 95 ft 13 kts
2026-04-25 15:45 28.42442 -81.28365 97 ft 13 kts 359°
2026-04-25 15:45 28.42500 -81.28418 97 ft 12 kts 263°
2026-04-25 15:45 28.42492 -81.28449 94 ft 12 kts 249°
2026-04-25 15:46 28.42426 -81.28665 97 ft 24 kts 251°
2026-04-25 15:46 28.42371 -81.28839 101 ft 23 kts 251°
2026-04-25 15:46 28.42320 -81.29005 99 ft 23 kts 251°
2026-04-25 15:46 28.42286 -81.29192 95 ft 24 kts 268°
2026-04-25 15:47 28.42284 -81.29373 94 ft 23 kts 269°
2026-04-25 15:47 28.42283 -81.29474 94 ft 0 kts 269°
2026-04-25 15:47 28.42282 -81.29580 93 ft 21 kts 269°
2026-04-25 15:48 28.42281 -81.29744 94 ft 21 kts 271°
2026-04-25 15:48 28.42314 -81.29792 94 ft 6 kts 352°
2026-04-25 15:48 28.42447 -81.29798 97 ft 26 kts 358°
2026-04-25 15:48 28.42548 -81.29798 94 ft 14 kts 360°
2026-04-25 15:49 28.42600 -81.29858 94 ft 13 kts 250°
2026-04-25 15:49 28.42579 -81.29957 93 ft 13 kts 271°
2026-04-25 15:49 28.42581 -81.29992 93 ft 0 kts 274°